Regional Weather Roundup
Issued by NWS

Home | Current Version | Previous Version | Text Only | Print | Product List | Glossary On
Versions: 1 2 3 4 5 6 7 8 9 10 11 12 13 14 15 16 17 18 19 20 21 22 23 24 25 26 27 28 29 30 31 32 33 34 35 36 37 38 39 40 41 42 43 44 45 46 47 48 49 50
000
ASUS43 KMPX 231410
RWRMN
WEATHER ROUNDUP FOR MINNESOTA
NATIONAL WEATHER SERVICE TWIN CITIES/CHANHASSEN MN
900 AM CDT SAT JUL 23 2016


NOTE: "FAIR" INDICATES FEW OR NO CLOUDS BELOW 12,000 FEET WITH NO
SIGNIFICANT WEATHER AND/OR OBSTRUCTIONS TO VISIBILITY. N/A MEANS
CURRENT SKY AND/OR WEATHER CONDITIONS ARE NOT AVAILABLE.

MNZ060>063-068>070-231500-
   Twin Cities Metro

CITY           SKY/WX    TMP DP  RH WIND       PRES   REMARKS
TWIN CITIES    PTSUNNY   81  74  79 E9        29.87F
ST PAUL        PTSUNNY   80  73  79 VRB6      29.88F
CRYSTAL        PTSUNNY   81  72  74 E9        29.86F
BLAINE         CLOUDY    81  73  78 E9        29.89F
LAKEVILLE      PTSUNNY   75  75 100 E8        29.87F
EDEN PRAIRIE   CLOUDY    80  74  81 E8        29.86F
LAKEVILLE      PTSUNNY   75  75 100 E8        29.87F
SOUTH ST PAUL  CLOUDY    80  73  78 E6        29.88F
LAKE ELMO      FAIR      79  70  73 NE7       29.91F
$$
MNZ001>005-007-008-013>017-022>024-027-028-231500-
   Northwest Minnesota

CITY           SKY/WX    TMP DP  RH WIND       PRES   REMARKS
BEMIDJI        CLOUDY    72  61  68 SE8       29.91S
HALLOCK        LGT RAIN  66  63  88 E5        29.85S
ROSEAU         CLOUDY    68  63  83 CALM      29.90R
WARROAD        CLOUDY    68  63  83 SE6       29.92R
THIEF RVR FALL MOSUNNY   70  63  78 E8        29.87F
CROOKSTON      CLOUDY    73  64  73 SE6       29.84S
FOSSTON        CLOUDY    70  61  73 SE6       29.87F
DETROIT LAKES  CLOUDY    72  59  64 SE13      29.86F
MOORHEAD       CLOUDY    75  64  69 E9        29.80F
PARK RAPIDS    PTSUNNY   73  59  61 SE10      29.89F
MAHNOMEN       FAIR      71  60  67 E9        29.85F
$$
MNZ006-009>011-018-025>026-231500-
   North Central Minnesota

CITY           SKY/WX    TMP DP  RH WIND       PRES   REMARKS
BAUDETTE       MOSUNNY   67  60  78 SE10      29.91S
FLAG ISLAND    CLOUDY    70  61  73 E8        29.89F
INTL FALLS     CLOUDY    71  61  70 SE12      29.93F
WASKISH        CLOUDY    68  63  83 SE6       29.92R
BIG FORK       CLOUDY    72  61  68 SE6       29.93F
LONGVILLE      CLOUDY    72  61  68 SE5       29.90F
GRAND RAPIDS   PTSUNNY   72  61  68 SE8       29.96F
ORR            MOSUNNY   70  61  73 SE6       29.94F
COOK           MOSUNNY   72  63  73 CALM      29.97F
WALKER         FAIR      72  60  65 SE6       29.90S
$$
MNZ012-019>021-037-231500-
   Northeast Minnesota

CITY           SKY/WX    TMP DP  RH WIND       PRES   REMARKS
DULUTH         SUNNY     75  60  59 E14       29.99S
ELY            CLOUDY    73  59  60 SE7       29.99F
HIBBING        SUNNY     70  61  73 SE7       29.98F
EVELETH        SUNNY     73  63  71 SE3       29.99F
DULUTH HARBOR  SUNNY     70  64  83 NE9       29.97F
TWO HARBORS    SUNNY     79  64  61 E7        29.99R
SILVER BAY     SUNNY     75  61  60 NE6       29.99S
GRAND MARAIS     N/A     70  56  61 NE6       30.01R
G MARAIS ARPRT CLOUDY    70  54  56 E9        30.06R
$$
MNZ029>031-032-039>041-046>048-054>057-064-231500-
   West Central Minnesota

CITY           SKY/WX    TMP DP  RH WIND       PRES   REMARKS
FERGUS FALLS   CLOUDY    77  66  69 SE15G21   29.80F
WHEATON        CLOUDY    75  72  88 SE22      29.82F
MORRIS         RAIN      72  68  88 S13G24    29.85R
ALEXANDRIA     CLOUDY    74  65  73 SE14      29.88F
ELBOW LAKE     FAIR      75  69  82 SE16G23   29.81F
WADENA         CLOUDY    73  61  64 SE13      29.86F
GLENWOOD       CLOUDY    72  68  88 E8        29.89F
APPLETON       TSTM      72  66  83 SE6       29.85F
BENSON         TSTM      70  66  88 W12G24    29.89R
ORTONVILLE     DRIZZLE   70  66  88 SE9       29.82F
MADISON        LGT RAIN  70  66  88 S6        29.85F
WILLMAR        FAIR      75  73  94 CALM      29.89R THUNDER
$$
MNZ033>034-036-042>043-049>051-058-059-231500-
   Central Minnesota

CITY           SKY/WX    TMP DP  RH WIND       PRES   REMARKS
ST CLOUD       CLOUDY    75  69  81 E8        29.88F
SAUK CENTRE    PTSUNNY   73  66  78 E9        29.88F
PAYNESVILLE    CLOUDY    74  69  84 SE3       29.88F
AITKIN         CLOUDY    75  59  57 E6        29.92F
PINE RIVER     CLOUDY    72  63  73 SE9       29.93F
BRAINERD       CLOUDY    75  63  66 SE10      29.90F
STAPLES        CLOUDY    73  61  64 SE7       29.88F
LONG PRAIRIE   FAIR      72  64  78 NE7       29.89F
LITTLE FALLS   CLOUDY    73  61  64 E8        29.90F
LITCHFIELD     CLOUDY    75  73  94 E5        29.88F
BUFFALO        CLOUDY    77  71  82 NE7       29.89F
MAPLE LAKE     CLOUDY    77  73  88 E9        29.89F
HUTCHINSON     CLOUDY    76  75  95 E6        29.87F
$$
MNZ037-044-045-052-053-231500-
   East Central Minnesota

CITY           SKY/WX    TMP DP  RH WIND       PRES   REMARKS
PRINCETON      CLOUDY    79  68  69 E9        29.90F
MORA           CLOUDY    75  64  69 E5        29.94F
CAMBRIDGE      PTSUNNY   81  66  61 E6        29.90F
RUSH CITY      CLOUDY    76  68  74 E3        29.93F
MOOSE LAKE     CLOUDY    77  61  57 CALM      29.93F
HINCKLEY       FAIR      77  68  73 E7        29.94F
CLOQUET        SUNNY     75  57  53 E9        29.98S
MCGREGOR       CLOUDY    73  61  64 E7        29.95F
$$
MNZ071>073-080-081-089-090-097-098-231500-
   Southwest Minnesota

CITY           SKY/WX    TMP DP  RH WIND       PRES   REMARKS
MONTEVIDEO     TSTM      68  68 100 W7G13     29.91F
GRANITE FALLS  TSTM      70  69  96 W26G33    29.90S VSB 3/4
CANBY          TSTM      70  68  92 N5        29.85F
MARSHALL       CLOUDY    71  69  93 E5        29.84S
REDWOOD FALLS  CLOUDY    78  75  90 E6        29.84S
OLIVIA         CLOUDY    73  72  94 E6        29.84F THUNDER
PIPESTONE      CLOUDY    73  72  94 NE3       29.84F
WINDOM         LGT RAIN  79  75  89 S12G18    29.85F
WORTHINGTON    LGT RAIN  77  75  94 SE13      29.86F
JACKSON        CLOUDY    77  70  78 S12       29.90R
TRACY          TSTM      78  78  99 SW7       29.86S
SLAYTON        RAIN      72  71  96 CALM      29.87F
$$
MNZ065>067-074>077-082>085-091>093-231500-
   South Central Minnesota

CITY           SKY/WX    TMP DP  RH WIND       PRES   REMARKS
MANKATO        CLOUDY    79  73  83 S7        29.86R THUNDER
NEW ULM        CLOUDY    79  77  94 SE9       29.83F THUNDER
ST JAMES       TSTM      72  72 100 SE7       29.85F
FAIRMONT       CLOUDY    77  73  88 S14G20    29.86F
GLENCOE        CLOUDY    77  76  95 E7        29.85F
FARIBAULT      CLOUDY    79  75  89 E6        29.87F
OWATONNA       CLOUDY    81  75  83 SE9G16    29.88S
WASECA         CLOUDY    77  73  88 SE13      29.89R
ALBERT LEA     TSTM      75  72  88 SW21G31   29.97R
$$
MNZ078>079-086>088-094>096-231500-
   Southeast Minnesota

CITY           SKY/WX    TMP DP  RH WIND       PRES   REMARKS
ROCHESTER      CLOUDY    78  76  93 SE14G22   29.92F
RED WING       PTSUNNY   79  72  78 SE6       29.88F
STANTON        CLOUDY    81  75  83 E8        29.86F
DODGE CENTER   CLOUDY    79  75  89 SE9       29.90F THUNDER
WINONA         CLOUDY    73  72  94 SE9       29.93F FOG
AUSTIN         CLOUDY    79  75  89 SE10      29.90F
PRESTON        LGT RAIN  71  68  88 SE9       29.93F
$$
ABBREVIATIONS USED IN REMARKS
   TC - TEMPERATURES IN CELSIUS
  WCI - WIND CHILL INDEX
   HX - HEAT INDEX
  VSB - VISIBILITY
$$




USA.gov is the U.S. government's official web portal to all federal, state and local government web resources and services.